Zurück zum Katalog

STARLINK-4095

AktivKommunikationVLEO
NORAD 53170·PAYLOAD·🇺🇸 United States

Gestartet Jul 17, 2022 von Cape Canaveral Space Force Station

Loading…

Nächste Überflüge (nächste 24 Stunden)

TLE

AktuellSource: CelesTrak SupGP

Epoche: Sep 15, 2026, 01:48 UTC

1 53170C 22083AQ  26258.07548611  .00640380  00000+0  30320-1 0  2583
2 53170  53.1597  28.0145 0001324  86.5640 271.4802 15.18506724    11

Verfolge STARLINK-4095 in Echtzeit mit AllMySat

Download on the App Store